Regional Weather Roundup
Issued by NWS

Home | Current Version | Previous Version | Text Only | Print | Product List | Glossary On
Versions: 1 2 3 4 5 6 7 8 9 10 11 12 13 14 15 16 17 18 19 20 21 22 23 24 25 26 27 28 29 30 31 32 33 34 35 36 37 38 39 40 41 42 43 44 45 46 47 48 49 50
000
ASUS43 KLOT 151609
RWRIL

ILLINOIS REGIONAL WEATHER ROUNDUP
NATIONAL WEATHER SERVICE CHICAGO/ROMEOVILLE IL
1000 AM CST FRI DEC 15 2017

NOTE: "FAIR" INDICATES FEW OR NO CLOUDS BELOW 12,000 FEET WITH NO
SIGNIFICANT WEATHER AND/OR OBSTRUCTIONS TO VISIBILITY.

* THESE STATIONS ARE NOT UNDER NWS QUALITY CONTROL. THEY ALSO MAY NOT
  REPORT WEATHER SUCH AS PRECIPITATION OR FOG.

ILZ001-002-007-009-015-016-024-151700-
NORTHWEST ILLINOIS

CITY           SKY/WX    TMP DP  RH WIND       PRES   REMARKS
MOLINE         MOSUNNY   32  21  64 W12       30.01S WCI  23
STERLING*      MOSUNNY   30  20  66 W14       29.98F WCI  19
SAVANNA*       PTSUNNY   30  20  66 W6        29.98R WCI  24
$$

ILZ003-004-008-010-011-017-018-151700-
NORTH CENTRAL ILLINOIS

CITY           SKY/WX    TMP DP  RH WIND       PRES   REMARKS
ROCKFORD       CLOUDY    28  16  60 W16       29.96R WCI  16
FREEPORT*      MOSUNNY   27  19  70 W10       29.96S WCI  17
ROCHELLE*      CLOUDY    27  18  69 W13       29.97R WCI  16
DE KALB*       CLOUDY    29  18  64 W20G26    29.94S WCI  16
PERU*          CLOUDY    29  16  58 NW14      30.01R WCI  18
$$

ILZ005-006-012>014-019>023-151700-
NORTHEAST ILLINOIS

CITY           SKY/WX    TMP DP  RH WIND       PRES   REMARKS
CHICAGO-OHARE  PTSUNNY   28  15  58 W12       29.92S WCI  18
CHICAGO-MIDWAY FLURRIES  29  15  56 NW13      29.94S WCI  19
AURORA         PTSUNNY   29  19  66 W16G24    29.95S WCI  17
LANSING*       CLOUDY    28  19  69 W12       29.95R WCI  17
JOLIET*        CLOUDY    30  17  59 W14G20    29.97S WCI  20
WAUKEGAN       CLOUDY    26  14  60 W7G18     29.90R WCI  18
DUPAGE AIRPORT CLOUDY    28  16  60 W16G24    29.93S WCI  16
KANKAKEE*      CLOUDY    29  17  59 W24G30    29.99S WCI  15
WHEELING       CLOUDY    28  16  60 NW13      29.94R WCI  17
MORRIS*        PTSUNNY   29  17  60 W21G28    29.98R WCI  16
ROMEOVILLE*    CLOUDY    28  17  63 NW15G24   29.96R WCI  17
NORTHERLY ISL    N/A     28  14  55 W10         N/A  WCI  19
$$

LMZ740>746-151700-
SOUTHERN LAKE MICHIGAN

STATION/POSITION SKY/WX   TEMP    WIND        PRES    VSBY  WAVE
                          AIR SEA DIR/SP/G                  HT/PER
                          (F)     (DEG/KT/KT) (MB)    (MI)  (FT/S)
HARRISON CRIB              27     300/ 18/ 26   N/A
BURNHAM HARBOR             28     250/  7/ 19   N/A
CALUMET HARBOR             27     260/  6/ 14 1013.1S
BURNS HARBOR               28     280/ 20/ 26 1013.5F
MICHIGAN CITY              27     270/ 26/ 29   N/A
$$

ILZ025>027-034>036-040-047-049-050-058-095>099-151700-
WEST-CENTRAL ILLINOIS

CITY           SKY/WX    TMP DP  RH WIND       PRES   REMARKS
QUINCY         SUNNY     35  20  54 W12       30.07S WCI  27
GALESBURG*     SUNNY     32  24  73 W10       30.05S WCI  24
MACOMB*        SUNNY     32  25  74 W14       30.08S WCI  22
JACKSONVILLE*  MOSUNNY   33  23  65 W12       30.08R WCI  25
PITTSFIELD*    SUNNY     36  22  58 W14       30.10R WCI  27
$$

ILZ028>032-037-038-041>044-048-051>054-059>061-151700-
CENTRAL ILLINOIS

CITY           SKY/WX    TMP DP  RH WIND       PRES   REMARKS
PONTIAC        MOSUNNY   31  18  56 W23G30    30.01S WCI  18
BLOOMINGTON    PTSUNNY   29  20  69 W18       30.04R WCI  16
DECATUR        CLOUDY    31  21  66 NW12G21   30.06R WCI  22
PEORIA         PTSUNNY   32  21  64 W12       30.06R WCI  23
LACON*         CLOUDY    30  18  60 NW8       30.03R WCI  23
LINCOLN*       PTSUNNY   33  24  69 NW9G18    30.06S WCI  25
SPRINGFIELD    MOSUNNY   35  24  64 W14       30.08S WCI  26
TAYLORVILLE    CLOUDY    32  24  71 NW12      30.08R WCI  23
$$

ILZ033-039-045-046-055>057-062-063-151700-
EAST-CENTRAL ILLINOIS

CITY           SKY/WX    TMP DP  RH WIND       PRES   REMARKS
CHAMPAIGN      CLOUDY    30  22  72 W15       30.04R WCI  19
DANVILLE*      CLOUDY    29  22  74 W15       30.00R WCI  18
RANTOUL*       CLOUDY    32  22  66 W18       30.02R WCI  20
MATTOON        CLOUDY    30  23  75 W8        30.06R WCI  22
PARIS*         CLOUDY    30  23  74 W14       30.06R WCI  19
$$

ILZ079-100>102-151700-
SOUTHWEST ILLINOIS

CITY           SKY/WX    TMP DP  RH WIND       PRES   REMARKS
ALTON          CLOUDY    36  27  69 W13       30.11R WCI  27
BELLEVILLE     CLOUDY    36  23  59 SW10      30.11R WCI  29
SPARTA*        CLOUDY    35  26  68 W7        30.15S WCI  29
$$

ILZ064>066-069>071-074>076-080>082-084>086-088>090-092>094-151700-
SOUTH-CENTRAL ILLINOIS

CITY           SKY/WX    TMP DP  RH WIND       PRES   REMARKS
CARBONDALE     MOSUNNY   36  23  59 SW9       30.16R WCI  29
CAIRO*         SUNNY     36  23  58 SW6       30.19F WCI  32
EFFINGHAM*     CLOUDY    33  25  72 SW9       30.11R WCI  25
MARION         MOSUNNY   37  23  56 W8        30.17R WCI  31
MT. VERNON     CLOUDY    35  23  61 SW9       30.14R WCI  28
CENTRALIA*     CLOUDY    34  26  70 SW10      30.11S WCI  26
SALEM*         CLOUDY    35  24  64 W12       30.11R WCI  26
METROPOLIS*    SUNNY     36  23  59 SW9       30.19S WCI  29
$$

ILZ067-068-072-073-078-083-087-091-151700-
SOUTHEAST ILLINOIS

CITY           SKY/WX    TMP DP  RH WIND       PRES   REMARKS
LAWRENCEVILLE  CLOUDY    32  21  64 SW10      30.12R WCI  24
FLORA*         CLOUDY    34  24  66 SW8       30.12R WCI  28
FAIRFIELD*     CLOUDY    33  23  66 SW5       30.13R WCI  29
HARRISBURG*    SUNNY     37  24  59 W9        30.17R WCI  30
ROBINSON*      CLOUDY    30  21  69 SW13      30.11S WCI  20
CARMI*         PTSUNNY   36  24  61 SW8       30.15R WCI  30
$$

ABBREVIATIONS USED IN REMARKS
   TC - TEMPERATURE IN CELSIUS
  WCI - WIND CHILL INDEX
   HX - HEAT INDEX
  VSB - VISIBILITY
$$




USA.gov is the U.S. government's official web portal to all federal, state and local government web resources and services.